Location: Cuguron
(43.0994°N, 0.5363°E)
Time: 07:20:20
(UTC+00:00)

Cosmos 1898 Rocket - Pass Details

Date: 15 May 2026
Orbit: 750 x 778 km, 74.0° (Epoch: 6 June)

Event Time Altitude Azimuth Distance (km) Brightness Sun altitude
Rises 22:57:03 0° 340° (NNW) 3,216 8.0 -26.5°
Reaches altitude 10° 22:59:25 10° 342° (NNW) 2,290 7.0 -26.6°
Enters shadow 23:04:34 80° 58° (ENE) 777 3.4 -26.8°
